Temperature
12 12 12 12 12 13 13 13 13 13 14 15 15 15 15 15 15 15 15 15 15 15 15 15 15 16 16 16 16 16 16 16 16 16 16 16 17 17
12 12 12 12 12 12 12 13 13 13 13 14 14 15 15 15 15 15 15 15 15 15 15 15 15 15 15 15 16 16 16 16 16 16 16 16 16 16
11 11 11 11 12 12 12 12 12 13 13 13 14 14 14 14 14 14 14 14 14 15 15 15 15 15 15 15 16 16 16 16 16 16 16 16 16 16
11 11 11 11 11 11 11 12 12 12 12 12 13 13 13 14 14 14 14 14 14 14 14 15 15 15 15 15 15 15 16 15 15 16 16 16 16 16
10 11 11 11 11 11 11 11 11 12 12 12 12 13 13 13 13 13 14 13 14 14 14 14 14 15 15 15 15 15 15 15 15 15 15 15 16 16
10 10 10 10 10 11 11 11 11 11 11 11 12 12 12 13 13 13 13 13 13 13 14 14 14 14 15 15 15 15 15 15 15 15 15 15 15 16
10 10 10 10 10 10 10 10 10 10 11 11 11 12 12 12 13 13 13 13 13 13 13 14 14 14 14 14 14 15 15 15 15 15 15 15 15 15
10 10 10 10 10 10 10 10 10 10 10 10 11 11 11 12 12 12 12 12 12 13 13 13 13 14 14 14 14 14 14 14 15 15 15 15 15 15
10 9 9 9 10 10 10 10 10 10 10 10 10 11 11 11 11 12 12 12 12 12 12 12 13 13 13 13 14 14 14 14 14 15 15 15 15 15
10 9 9 9 9 9 9 9 9 10 10 10 10 11 11 11 11 11 11 11 12 12 12 12 12 12 13 13 13 13 14 14 14 14 15 15 15 15
9 9 9 9 9 9 9 9 9 9 9 10 10 10 10 10 11 11 11 11 11 11 12 12 12 12 12 12 13 13 13 13 14 14 14 14 15 15
9 9 9 9 9 9 9 9 8 9 9 9 9 10 10 10 10 10 10 11 11 11 11 11 11 11 11 12 12 12 13 13 13 14 14 14 14 14
9 9 9 9 9 9 8 8 8 8 8 9 9 9 10 10 10 10 10 11 11 11 11 11 11 11 11 11 12 12 12 13 13 13 13 13 14 14
9 9 8 8 8 8 8 8 8 8 8 8 8 9 9 10 10 10 10 11 11 11 11 11 11 11 11 11 11 11 12 12 12 13 13 13 13 13
9 8 8 8 8 8 8 8 8 8 8 8 8 8 9 10 10 10 10 10 10 11 10 11 11 11 11 11 12 12 11 11 12 12 12 12 12 12
8 8 8 8 8 8 8 8 8 8 8 8 8 8 9 9 10 10 10 10 10 10 10 11 10 11 11 11 11 12 12 11 11 11 12 12 12 12
8 8 8 8 8 8 8 8 8 8 8 8 8 8 9 9 9 10 10 10 10 10 10 10 10 10 10 11 11 11 11 11 11 11 11 11 11 11
9 9 8 8 8 8 8 8 8 8 8 8 8 8 8 9 9 10 10 10 10 10 10 10 10 10 10 10 10 11 11 11 11 11 11 11 11 11
9 9 8 8 8 8 8 8 8 8 8 8 8 8 8 9 9 9 9 10 10 10 10 10 10 10 10 10 10 10 11 11 11 10 11 11 11 11
9 9 8 8 8 8 8 8 8 8 8 8 8 8 8 9 9 9 9 9 10 10 10 10 10 10 10 10 10 10 10 10 11 10 10 10 10 10
9 9 9 9 9 9 9 9 9 9 9 8 8 8 8 9 9 9 9 9 10 10 10 10 10 10 10 10 10 10 10 10 10 10 10 10 10 10
9 9 9 9 9 9 9 9 9 9 9 9 8 8 8 9 9 9 9 9 10 10 10 10 10 10 10 10 10 10 9 9 9 9 10 10 10 10
9 9 9 9 9 9 9 9 9 9 9 9 9 9 9 9 9 9 9 10 10 10 10 10 10 10 10 10 10 9 9 9 9 9 9 9 10 10
Wind_Speed
7 7 6 6 6 6 5 5 5 6 7 6 3 2 2 3 5 5 6 10 14 17 19 21 23 26 27 29 30 29 29 28 29 30 30 30 29 29
7 8 7 6 6 6 6 5 5 6 7 6 5 3 1 2 5 5 5 8 12 16 18 19 21 23 26 28 29 29 28 27 27 28 28 29 29 29
8 8 8 8 6 6 6 6 6 6 8 7 6 4 3 3 2 4 5 6 8 14 17 18 19 21 24 26 27 27 27 27 27 27 27 27 27 28
8 8 8 8 8 7 7 8 7 7 7 8 7 5 6 5 4 4 3 5 5 10 15 17 18 18 20 22 23 25 26 26 26 26 26 26 27 27
8 8 8 8 8 7 7 8 7 8 7 7 7 6 5 5 5 4 4 3 4 6 10 13 15 17 18 19 21 22 23 24 25 25 26 25 25 25
8 8 9 9 9 8 8 8 8 8 7 7 7 6 5 5 4 4 4 3 4 4 5 7 9 12 14 17 19 20 21 22 23 24 24 24 24 24
8 8 10 11 11 9 10 7 6 5 6 6 6 6 6 5 5 4 4 3 3 3 3 4 4 5 7 12 15 17 18 19 19 20 21 22 22 22
9 9 10 11 13 14 15 14 11 9 7 7 6 7 7 6 4 4 4 3 3 3 4 4 4 4 4 6 11 15 16 17 17 18 19 20 20 20
9 9 11 13 10 8 10 13 14 16 15 10 10 9 8 6 5 4 4 4 3 2 3 3 3 4 2 4 11 14 15 16 16 17 18 19 19 18
11 11 11 11 12 9 8 8 8 9 12 12 11 11 11 7 6 6 5 3 2 2 3 2 2 2 3 3 8 12 14 15 15 16 16 16 16 16
11 11 10 9 10 9 8 8 9 9 12 14 15 14 14 11 7 4 4 4 4 4 4 3 3 3 3 2 4 8 12 13 14 15 16 16 16 15
8 8 10 9 9 8 7 8 9 9 9 9 8 11 11 11 12 9 7 6 4 4 5 4 4 4 3 2 3 5 7 10 13 15 16 17 17 12
8 7 5 4 6 8 8 8 9 8 7 7 7 7 7 8 9 10 9 8 7 4 5 5 4 4 3 3 3 4 5 5 7 9 13 16 15 11
8 8 5 4 6 8 8 10 10 8 8 7 7 7 7 8 8 9 10 9 7 6 7 7 4 6 5 4 4 4 5 6 6 6 8 11 10 10
9 11 12 13 11 10 14 14 10 8 8 9 9 8 8 8 8 8 8 8 7 7 9 7 6 6 6 5 5 5 5 5 6 7 7 7 6 7
9 11 13 15 13 12 10 9 9 9 9 9 8 7 6 6 7 7 7 7 6 5 6 8 7 8 5 5 7 7 6 7 8 8 7 6 6 9
6 7 9 8 8 8 8 8 8 9 10 9 7 7 6 6 6 6 7 7 7 7 7 6 5 5 4 5 7 8 7 7 8 8 8 7 6 6
5 8 9 9 9 7 7 7 7 8 8 8 7 7 7 7 6 6 6 7 8 8 8 7 7 5 3 1 4 9 8 7 8 8 8 7 7 5
6 9 9 9 8 7 7 7 7 7 7 7 7 7 7 7 7 7 7 8 8 8 8 8 8 8 8 6 3 4 7 8 9 7 7 5 6 7
8 9 9 8 7 7 7 7 6 5 6 7 7 7 7 7 7 7 8 9 8 8 8 8 9 9 8 7 6 4 7 9 9 8 6 5 5 8
8 8 7 7 7 6 6 6 5 5 6 6 6 7 7 7 7 8 8 10 9 8 9 10 9 10 5 5 6 5 4 5 8 7 8 7 6 5
7 7 6 6 6 5 5 5 5 5 5 6 6 6 6 7 8 9 8 9 9 8 8 7 8 8 5 7 8 8 7 5 8 12 9 6 6 7
6 7 6 6 5 5 5 5 5 5 5 5 6 6 6 6 7 7 8 9 8 8 8 8 8 7 7 7 8 8 10 8 6 6 4 8 5 6
Wind_Direction
273 272 261 264 270 270 266 258 260 271 276 277 261 207 190 192 177 209 223 221 219 220 221 222 222 219 215 212 211 212 212 213 214 215 216 216 216 219
265 265 268 264 267 268 262 256 247 252 265 280 282 257 234 245 188 208 225 226 222 220 220 221 222 220 216 213 212 211 211 213 214 214 215 216 217 219
277 272 266 263 266 274 275 268 256 248 256 265 272 274 240 248 221 223 234 233 227 221 218 219 221 220 219 215 212 211 210 212 213 214 216 218 218 219
280 278 277 274 264 260 265 271 268 262 257 263 268 269 257 243 232 227 238 245 235 220 211 213 215 218 218 214 211 209 209 210 212 214 216 218 219 220
281 280 278 276 274 264 261 263 265 267 258 258 262 254 255 243 236 234 235 233 238 218 202 204 208 211 212 211 210 209 208 209 211 213 215 216 217 219
282 280 278 274 272 271 268 258 259 265 270 267 265 261 252 240 222 225 233 224 229 217 193 187 191 200 208 208 207 208 208 209 209 211 213 215 216 217
289 283 278 275 270 266 267 264 269 270 271 269 267 266 256 239 225 216 227 225 228 212 181 177 173 185 196 200 199 199 200 202 203 205 207 209 211 212
286 284 283 273 263 250 246 248 247 252 256 260 265 265 269 268 253 235 219 219 231 203 191 193 177 182 184 183 189 188 191 195 199 200 201 203 204 205
278 279 282 282 291 278 257 247 244 243 240 244 255 259 265 269 267 250 240 233 232 196 175 203 176 170 159 162 173 178 182 186 189 190 190 192 193 195
269 268 267 271 278 282 281 273 262 253 242 236 239 246 252 257 254 244 233 228 232 200 178 192 170 148 127 125 161 169 173 175 176 179 180 181 183 185
271 271 269 268 268 269 267 267 267 264 261 247 229 232 233 234 232 229 213 207 227 215 190 177 160 140 128 126 134 156 164 165 168 170 170 169 168 165
279 274 270 267 268 255 250 260 267 269 276 280 256 241 235 229 218 215 215 211 213 212 191 171 163 151 143 137 143 145 148 155 160 165 164 162 161 155
288 292 299 305 270 257 251 256 262 274 283 276 270 256 240 229 220 214 212 210 212 220 185 170 167 165 149 145 149 156 157 152 150 154 161 164 166 164
279 286 293 292 282 271 259 254 260 266 263 261 255 250 242 233 224 215 210 209 207 205 187 177 170 171 156 150 151 154 155 157 155 150 153 163 170 171
268 281 288 279 270 263 251 249 250 247 246 247 248 245 237 234 224 215 212 204 200 198 186 187 179 168 166 160 152 156 154 159 158 154 155 163 166 161
265 280 278 266 256 256 262 246 234 237 238 241 243 247 243 231 221 211 205 194 193 194 185 182 182 174 175 165 157 162 160 161 165 159 155 158 164 170
311 287 280 276 264 249 246 240 232 229 234 238 242 243 242 234 222 210 199 191 194 192 185 181 173 167 165 164 164 165 160 156 163 161 158 158 166 171
280 276 278 277 272 262 254 249 238 233 232 230 231 233 230 227 224 212 197 195 197 192 187 178 166 156 147 137 163 164 162 159 160 162 162 158 164 162
251 265 270 272 270 266 257 249 244 233 227 226 227 228 225 221 216 210 201 197 199 194 186 177 175 174 175 172 164 171 163 159 158 162 166 155 155 155
243 257 265 268 269 269 264 255 248 236 226 223 222 222 219 214 212 208 203 198 196 191 183 181 183 185 183 170 153 162 167 160 162 163 158 124 102 102
266 263 265 268 268 264 262 255 245 234 228 222 219 219 218 213 211 207 202 196 194 188 186 187 188 177 156 130 132 134 139 138 153 156 155 143 138 142
270 273 273 273 268 262 261 252 240 231 228 223 218 217 218 211 209 207 199 192 193 190 188 181 169 165 165 168 161 152 145 126 100 101 94 113 152 166
267 268 267 268 269 264 257 250 242 230 223 220 216 214 215 213 209 205 195 189 186 185 179 172 169 172 175 170 160 153 150 147 140 122 68 34 85 129
Height
1505 1504 1504 1504 1505 1505 1505 1506 1506 1505 1504 1504 1504 1503 1503 1503 1502 1502 1502 1502 1503 1505 1507 1510 1513 1516 1520 1525 1530 1534 1539 1544 1549 1554 1558 1563 1567 1572
1500 1500 1499 1499 1499 1500 1500 1500 1501 1501 1500 1499 1499 1499 1499 1499 1498 1498 1497 1497 1498 1499 1501 1503 1506 1509 1513 1517 1522 1527 1532 1537 1541 1546 1551 1556 1560 1565
1496 1495 1495 1494 1494 1494 1495 1495 1495 1496 1495 1494 1495 1495 1494 1494 1494 1493 1493 1493 1493 1493 1495 1497 1499 1503 1506 1510 1515 1519 1524 1529 1534 1539 1543 1548 1553 1558
1490 1490 1489 1489 1489 1489 1489 1489 1489 1490 1490 1489 1490 1490 1490 1490 1489 1489 1488 1488 1488 1488 1489 1491 1493 1496 1499 1503 1507 1512 1517 1522 1527 1531 1536 1541 1546 1550
1485 1485 1484 1483 1483 1483 1483 1483 1483 1484 1484 1484 1484 1484 1485 1485 1485 1484 1484 1484 1484 1483 1484 1485 1487 1490 1493 1496 1500 1505 1510 1515 1520 1524 1529 1533 1538 1543
1480 1479 1478 1478 1477 1477 1477 1477 1478 1478 1478 1478 1478 1479 1479 1480 1480 1480 1479 1479 1479 1479 1479 1480 1482 1484 1487 1490 1494 1498 1503 1508 1512 1517 1522 1526 1531 1536
1475 1473 1472 1472 1471 1471 1471 1471 1472 1472 1472 1472 1472 1473 1474 1475 1475 1475 1475 1475 1475 1475 1475 1476 1477 1479 1481 1484 1488 1492 1496 1501 1506 1510 1515 1520 1525 1529
1469 1467 1466 1465 1465 1465 1465 1465 1466 1466 1466 1467 1467 1467 1468 1469 1470 1470 1470 1471 1471 1471 1471 1472 1473 1475 1477 1480 1483 1486 1490 1495 1499 1504 1508 1513 1518 1523
1463 1462 1461 1460 1460 1459 1459 1458 1459 1459 1460 1460 1460 1461 1462 1464 1465 1465 1466 1466 1466 1467 1468 1468 1469 1471 1473 1475 1478 1482 1485 1489 1493 1498 1502 1507 1512 1517
1458 1456 1455 1454 1454 1453 1452 1452 1452 1452 1453 1453 1453 1454 1456 1458 1459 1461 1461 1462 1463 1463 1464 1465 1465 1467 1469 1472 1474 1477 1481 1484 1488 1492 1497 1501 1506 1511
1453 1452 1450 1449 1448 1447 1446 1445 1445 1445 1446 1446 1447 1447 1449 1451 1453 1455 1456 1457 1458 1459 1460 1461 1462 1463 1465 1468 1470 1474 1477 1480 1484 1488 1492 1497 1501 1506
1448 1447 1445 1444 1442 1441 1440 1439 1438 1438 1439 1440 1440 1441 1442 1444 1446 1448 1450 1452 1453 1454 1456 1457 1458 1460 1462 1464 1467 1470 1473 1477 1480 1484 1488 1493 1497 1501
1443 1442 1440 1438 1436 1435 1434 1433 1432 1433 1433 1433 1433 1434 1436 1437 1439 1441 1444 1446 1448 1450 1452 1453 1454 1456 1458 1460 1463 1466 1470 1473 1477 1481 1485 1489 1493 1497
1438 1436 1434 1432 1430 1429 1428 1427 1427 1426 1426 1427 1427 1428 1429 1431 1433 1435 1438 1440 1443 1445 1448 1449 1450 1452 1455 1457 1460 1463 1467 1470 1474 1478 1482 1486 1490 1494
1433 1430 1428 1426 1424 1422 1421 1420 1420 1420 1420 1420 1421 1422 1424 1425 1427 1430 1432 1435 1438 1440 1443 1445 1447 1449 1452 1454 1456 1459 1463 1467 1471 1475 1479 1483 1487 1491
1427 1424 1422 1420 1418 1416 1415 1414 1413 1413 1414 1414 1415 1417 1419 1420 1422 1424 1427 1429 1432 1435 1438 1441 1443 1446 1449 1452 1454 1457 1460 1464 1468 1472 1476 1481 1485 1489
1422 1419 1416 1414 1412 1410 1409 1408 1408 1408 1408 1409 1410 1411 1413 1415 1417 1419 1422 1424 1427 1430 1433 1436 1440 1443 1446 1449 1451 1454 1458 1461 1465 1469 1474 1478 1483 1487
1416 1413 1411 1409 1407 1406 1404 1403 1403 1403 1403 1404 1405 1406 1408 1410 1412 1414 1417 1420 1422 1425 1428 1432 1435 1439 1443 1446 1449 1451 1455 1459 1463 1467 1471 1476 1480 1485
1411 1408 1406 1404 1402 1401 1400 1399 1398 1398 1398 1399 1400 1401 1403 1405 1407 1409 1412 1415 1418 1421 1424 1427 1431 1434 1437 1441 1445 1449 1452 1456 1460 1465 1469 1474 1478 1482
1406 1403 1401 1399 1397 1396 1395 1394 1393 1393 1393 1393 1394 1396 1397 1400 1402 1404 1407 1410 1413 1417 1420 1423 1427 1430 1434 1438 1441 1445 1450 1453 1457 1461 1467 1471 1476 1480
1402 1399 1397 1395 1393 1392 1390 1390 1389 1389 1389 1389 1390 1391 1393 1395 1397 1400 1403 1406 1409 1412 1416 1419 1423 1428 1432 1436 1439 1442 1446 1451 1455 1459 1464 1468 1472 1476
1397 1394 1392 1390 1389 1388 1387 1386 1385 1385 1385 1385 1385 1387 1389 1391 1393 1396 1399 1402 1405 1408 1412 1416 1420 1424 1428 1432 1435 1439 1443 1448 1453 1457 1462 1465 1468 1472
1392 1390 1388 1386 1385 1384 1383 1382 1382 1381 1381 1382 1382 1383 1385 1387 1389 1392 1395 1398 1401 1405 1409 1413 1417 1421 1425 1429 1433 1436 1441 1445 1449 1454 1459 1463 1467 1471